EW7590 Weather Reports


Display with metric or nautical units.
time (UTC)temp
F
wind
direction
speed
MPH
gust
MPH
rain 1hr
in
rain 24hr
in
rain mn
in
humidity
%
barometer
mb
20210925013002 67 143 0.0 3.0 0.00 0.02 0.02 77 1017.5
20210925012502 67 273 1.0 2.0 0.00 0.02 0.02 74 1017.5
20210925012003 67 155 1.0 2.0 0.00 0.02 0.02 74 1017.6
20210925011502 67 204 1.0 2.0 0.00 0.02 0.02 74 1017.6
20210925011002 67 208 1.0 2.0 0.00 0.02 0.02 74 1017.5
20210925010502 67 172 0.0 3.0 0.00 0.02 0.02 74 1017.6
20210925010002 67 172 1.0 3.0 0.00 0.02 0.02 75 1017.5
20210925005503 67 209 2.0 3.0 0.00 0.02 0.02 74 1017.6
20210925005002 67 197 1.0 3.0 0.00 0.02 0.02 73 1017.5
20210925004502 67 191 2.0 4.0 0.00 0.02 0.02 74 1017.6
20210925004003 67 159 2.0 4.0 0.00 0.02 0.02 75 1017.6
20210925003502 67 196 1.0 4.0 0.00 0.02 0.02 74 1017.5
20210925003003 68 179 2.0 4.0 0.00 0.02 0.02 75 1017.5
20210925002502 67 192 2.0 4.0 0.00 0.02 0.02 76 1017.5
20210925002002 67 186 2.0 4.0 0.00 0.02 0.02 75 1017.4
20210925001503 68 190 2.0 4.0 0.00 0.02 0.02 80 1017.6
20210925001002 67 201 1.0 6.0 0.00 0.02 0.02 81 1017.5
20210925000502 67 212 2.0 6.0 0.00 0.02 0.02 84 1017.4
20210925000002 68 180 4.0 6.0 0.00 0.02 0.02 86 1017.4
20210924235503 68 186 3.0 5.0 0.00 0.02 0.02 86 1017.5
20210924235002 69 185 2.0 4.0 0.00 0.02 0.02 86 1017.3
20210924234502 69 180 2.0 4.0 0.00 0.02 0.02 86 1017.2
20210924234002 69 193 3.0 4.0 0.00 0.02 0.02 87 1017.2
20210924233503 69 198 2.0 4.0 0.00 0.02 0.02 87 1017.0
20210924233002 69 225 2.0 4.0 0.00 0.02 0.02 88 1016.8
20210924232502 70 226 2.0 4.0 0.00 0.02 0.02 88 1016.9
20210924232002 70 197 1.0 4.0 0.00 0.02 0.02 88 1016.8
20210924231502 70 195 2.0 7.0 0.00 0.02 0.02 88 1016.7
20210924231002 70 209 3.0 7.0 0.00 0.02 0.02 87 1016.7
20210924230502 70 192 2.0 4.0 0.00 0.02 0.02 89 1016.7
20210924230002 71 208 2.0 4.0 0.00 0.02 0.02 90 1016.6
20210924225502 71 186 1.0 4.0 0.00 0.02 0.02 89 1016.6
20210924225002 71 268 2.0 4.0 0.00 0.02 0.02 89 1016.6
20210924224502 71 193 2.0 4.0 0.00 0.02 0.02 90 1016.5
20210924224002 71 202 1.0 3.0 0.00 0.02 0.02 90 1016.5
20210924223502 71 195 2.0 3.0 0.00 0.02 0.02 90 1016.4
20210924223003 72 175 2.0 3.0 0.00 0.02 0.02 89 1016.3
20210924222502 72 199 2.0 4.0 0.00 0.02 0.02 89 1016.3
20210924222003 72 201 2.0 4.0 0.00 0.02 0.02 89 1016.3
20210924221502 72 203 2.0 4.0 0.00 0.02 0.02 90 1016.2
20210924221003 72 201 2.0 4.0 0.00 0.02 0.02 90 1016.2
20210924220502 72 211 1.0 4.0 0.00 0.02 0.02 89 1016.2
20210924220002 73 200 2.0 4.0 0.00 0.02 0.02 89 1016.1
20210924215502 73 202 2.0 4.0 0.00 0.02 0.02 90 1016.2
20210924215002 73 188 3.0 5.0 0.00 0.02 0.02 88 1016.1
20210924214503 73 197 2.0 6.0 0.00 0.02 0.02 89 1016.1
20210924214002 73 199 3.0 6.0 0.00 0.02 0.02 88 1016.0
20210924213503 73 189 3.0 6.0 0.00 0.02 0.02 88 1016.0
20210924213003 73 195 3.0 6.0 0.00 0.02 0.02 88 1015.8
20210924212502 74 185 4.0 6.0 0.00 0.02 0.02 89 1015.9
20210924212002 74 206 3.0 5.0 0.00 0.02 0.02 89 1015.9
20210924211502 74 204 2.0 4.0 0.00 0.02 0.02 90 1015.9
20210924211003 74 192 2.0 5.0 0.00 0.02 0.02 88 1015.8
20210924210502 74 191 3.0 5.0 0.00 0.02 0.02 88 1015.8
20210924210003 74 187 3.0 5.0 0.00 0.02 0.02 88 1015.8
20210924205502 74 196 3.0 6.0 0.00 0.02 0.02 88 1015.8
20210924205003 74 198 3.0 6.0 0.00 0.02 0.02 88 1015.7
20210924204502 74 216 2.0 3.0 0.00 0.02 0.02 89 1015.5
20210924204002 74 201 2.0 3.0 0.00 0.02 0.02 89 1015.4
20210924203502 74 197 2.0 4.0 0.00 0.02 0.02 89 1015.4
20210924203002 74 197 2.0 4.0 0.00 0.02 0.02 89 1015.4
20210924202503 74 186 1.0 4.0 0.00 0.02 0.02 89 1015.5
20210924202002 74 193 2.0 4.0 0.00 0.02 0.02 89 1015.4
20210924201502 74 208 2.0 6.0 0.00 0.02 0.02 89 1015.4
20210924201002 74 191 3.0 6.0 0.00 0.02 0.02 89 1015.3
20210924200502 74 192 3.0 5.0 0.00 0.02 0.02 89 1015.2
20210924200002 74 195 3.0 7.0 0.00 0.02 0.02 90 1015.3
20210924195503 73 188 4.0 7.0 0.00 0.02 0.02 89 1015.3
20210924195003 74 185 4.0 6.0 0.00 0.02 0.02 88 1015.3
20210924194502 74 170 3.0 6.0 0.00 0.02 0.02 87 1015.4
20210924194003 74 191 3.0 6.0 0.00 0.02 0.02 87 1015.3
20210924193502 75 192 3.0 8.0 0.00 0.02 0.02 87 1015.3
20210924193003 75 189 4.0 8.0 0.00 0.02 0.02 85 1015.4
20210924192502 75 176 3.0 7.0 0.00 0.02 0.02 85 1015.3
20210924192003 75 200 4.0 7.0 0.00 0.02 0.02 85 1015.4
20210924191502 75 196 3.0 9.0 0.00 0.02 0.02 87 1015.4
20210924191003 75 189 5.0 9.0 0.00 0.02 0.02 86 1015.5
20210924190502 75 187 3.0 9.0 0.00 0.02 0.02 87 1015.3
20210924190003 75 185 4.0 9.0 0.00 0.02 0.02 86 1015.4
20210924185502 75 183 4.0 7.0 0.00 0.02 0.02 86 1015.5
20210924185003 75 174 3.0 7.0 0.00 0.02 0.02 86 1015.3
20210924184502 75 175 2.0 7.0 0.00 0.02 0.02 85 1015.2
20210924184003 75 194 5.0 10.0 0.00 0.02 0.02 86 1015.3
20210924183502 75 174 4.0 10.0 0.00 0.02 0.02 85 1015.3
20210924183002 75 177 5.0 10.0 0.00 0.02 0.02 85 1015.2
20210924182502 76 183 5.0 9.0 0.00 0.02 0.02 86 1015.5
20210924182002 75 185 4.0 8.0 0.00 0.02 0.02 87 1015.4
20210924181502 75 195 5.0 8.0 0.00 0.02 0.02 86 1015.4
20210924181002 75 189 3.0 8.0 0.00 0.02 0.02 87 1015.4
20210924180502 75 174 3.0 8.0 0.00 0.02 0.02 86 1015.5
20210924180002 75 167 3.0 8.0 0.00 0.02 0.02 87 1015.7
20210924175502 75 188 5.0 8.0 0.00 0.02 0.02 88 1015.7
20210924175002 75 183 2.0 7.0 0.00 0.02 0.02 90 1015.8
20210924174502 75 185 3.0 7.0 0.00 0.02 0.02 89 1015.8
20210924174002 75 182 2.0 6.0 0.00 0.02 0.02 90 1015.8
20210924173502 74 169 2.0 4.0 0.00 0.02 0.02 90 1016.0
20210924173003 74 118 1.0 5.0 0.00 0.02 0.02 91 1015.9
20210924172502 74 184 3.0 5.0 0.00 0.02 0.02 91 1016.1
20210924172002 74 170 2.0 4.0 0.00 0.02 0.02 91 1016.1
20210924171502 74 182 1.0 3.0 0.00 0.02 0.02 92 1016.2
20210924171002 74 174 1.0 5.0 0.00 0.02 0.02 92 1016.3
20210924170502 74 179 3.0 5.0 0.00 0.02 0.02 91 1016.2
20210924170003 74 169 2.0 5.0 0.02 0.02 0.02 91 1016.2
20210924165502 74 148 2.0 5.0 0.02 0.02 0.02 91 1016.2
20210924165002 74 120 2.0 5.0 0.02 0.02 0.02 93 1016.3
20210924164503 74 102 1.0 4.0 0.02 0.02 0.02 94 1016.3
20210924164002 73 172 2.0 4.0 0.02 0.02 0.02 92 1016.2
20210924163503 73 110 1.0 4.0 0.02 0.02 0.02 94 1016.4
20210924163002 73 185 2.0 4.0 0.02 0.02 0.02 94 1016.4
20210924162502 73 48 2.0 4.0 0.02 0.02 0.02 95 1016.3
20210924162002 72 190 1.0 3.0 0.02 0.02 0.02 95 1016.4
20210924161503 72 182 1.0 4.0 0.02 0.02 0.02 95 1016.4
20210924161002 73 187 2.0 4.0 0.01 0.01 0.01 94 1016.4
20210924160502 73 117 1.0 5.0 0.01 0.01 0.01 93 1016.5
20210924160003 73 46 1.0 5.0 0.00 0.00 0.00 91 1016.7
20210924155502 74 171 2.0 5.0 0.00 0.00 0.00 90 1016.8
20210924155003 74 173 2.0 5.0 0.00 0.00 0.00 90 1016.8
20210924154502 74 176 1.0 7.0 0.00 0.00 0.00 90 1016.9
20210924154002 74 181 3.0 7.0 0.00 0.00 0.00 90 1016.9
20210924153502 74 141 2.0 4.0 0.00 0.00 0.00 90 1017.0
20210924153002 74 180 1.0 4.0 0.00 0.00 0.00 90 1017.0
20210924152502 74 168 2.0 4.0 0.00 0.00 0.00 90 1017.0
20210924152003 74 75 2.0 7.0 0.00 0.00 0.00 90 1017.1
20210924151502 74 133 2.0 7.0 0.00 0.00 0.00 89 1017.0
20210924151002 74 103 1.0 4.0 0.00 0.00 0.00 90 1017.1
20210924150502 74 154 2.0 7.0 0.00 0.00 0.00 90 1017.1
20210924150002 74 85 1.0 7.0 0.00 0.00 0.00 91 1017.0
20210924145502 74 186 2.0 7.0 0.00 0.00 0.00 91 1017.1
20210924145003 74 159 2.0 7.0 0.00 0.00 0.00 90 1017.1
20210924144502 74 173 3.0 5.0 0.00 0.00 0.00 90 1017.1
20210924144002 74 166 2.0 7.0 0.00 0.00 0.00 91 1017.0
20210924143503 74 194 3.0 7.0 0.00 0.00 0.00 89 1017.1
20210924143002 74 145 2.0 5.0 0.00 0.00 0.00 90 1017.0
20210924142503 74 176 2.0 6.0 0.00 0.00 0.00 90 1017.0
20210924142002 74 183 3.0 7.0 0.00 0.00 0.00 90 1017.1
20210924141503 74 134 2.0 7.0 0.00 0.00 0.00 90 1017.1
20210924141002 74 148 2.0 5.0 0.00 0.00 0.00 90 1017.1
20210924140502 74 132 3.0 5.0 0.00 0.00 0.00 90 1017.1
20210924140003 74 182 2.0 7.0 0.00 0.00 0.00 91 1017.0
20210924135502 74 119 3.0 7.0 0.00 0.00 0.00 91 1017.0
20210924135003 74 106 2.0 4.0 0.00 0.00 0.00 91 1017.0
20210924134502 74 139 2.0 7.0 0.00 0.00 0.00 92 1017.0
20210924134003 74 133 3.0 7.0 0.00 0.00 0.00 91 1017.0
20210924133502 73 108 2.0 7.0 0.00 0.00 0.00 91 1016.9
20210924133003 73 155 2.0 6.0 0.00 0.00 0.00 93 1016.8
20210924132502 73 161 2.0 5.0 0.00 0.00 0.00 94 1016.9
20210924132002 73 157 3.0 6.0 0.00 0.00 0.00 93 1016.9
20210924131503 73 106 2.0 6.0 0.00 0.00 0.00 93 1016.9
20210924131003 73 130 1.0 6.0 0.00 0.00 0.00 92 1016.9
20210924130502 73 176 2.0 6.0 0.00 0.00 0.00 92 1016.9
20210924130003 72 142 2.0 5.0 0.00 0.00 0.00 93 1016.8
20210924125502 72 177 3.0 6.0 0.00 0.00 0.00 93 1016.8
20210924125002 72 172 3.0 6.0 0.00 0.00 0.00 93 1016.7
20210924124503 72 164 2.0 5.0 0.00 0.00 0.00 93 1016.7
20210924124002 72 167 2.0 9.0 0.00 0.00 0.00 93 1016.7
20210924123503 72 154 2.0 9.0 0.00 0.00 0.00 94 1016.6
20210924123002 72 149 1.0 5.0 0.00 0.00 0.00 94 1016.6
20210924122503 72 130 2.0 5.0 0.00 0.00 0.00 94 1016.7
20210924122002 71 115 2.0 4.0 0.00 0.00 0.00 94 1016.7
20210924121502 71 74 2.0 5.0 0.00 0.00 0.00 94 1016.5
20210924121002 71 141 2.0 8.0 0.00 0.00 0.00 94 1016.5
20210924120502 71 66 4.0 8.0 0.00 0.00 0.00 94 1016.5
20210924120002 71 115 2.0 6.0 0.00 0.00 0.00 94 1016.5
20210924115504 71 81 3.0 6.0 0.00 0.00 0.00 95 1016.4
20210924115003 71 166 1.0 5.0 0.00 0.00 0.00 95 1016.6
20210924114503 71 137 1.0 7.0 0.00 0.00 0.00 96 1016.6
20210924114003 71 124 3.0 7.0 0.00 0.00 0.00 96 1016.7
20210924113502 71 120 1.0 6.0 0.00 0.00 0.00 95 1016.5
20210924113003 71 92 1.0 7.0 0.00 0.00 0.00 95 1016.7
20210924112502 71 54 3.0 7.0 0.00 0.00 0.00 96 1016.7
20210924112002 71 121 2.0 4.0 0.00 0.00 0.00 96 1016.8
20210924111502 70 150 1.0 4.0 0.00 0.00 0.00 96 1016.8
20210924111003 70 140 2.0 6.0 0.00 0.00 0.00 96 1016.9
20210924110503 70 69 3.0 6.0 0.00 0.00 0.00 96 1016.8
20210924110002 70 54 2.0 4.0 0.00 0.00 0.00 96 1016.9
20210924105503 70 81 1.0 7.0 0.00 0.00 0.00 96 1017.1
20210924105002 70 94 2.0 7.0 0.00 0.00 0.00 96 1017.1
20210924104503 70 87 2.0 6.0 0.00 0.00 0.00 96 1017.1
20210924104003 70 82 2.0 9.0 0.00 0.00 0.00 96 1017.2
20210924103503 70 75 1.0 9.0 0.00 0.00 0.00 96 1017.3
20210924103002 70 114 1.0 4.0 0.00 0.00 0.00 96 1017.3
20210924102502 70 128 1.0 5.0 0.00 0.00 0.00 96 1017.3
20210924102003 70 63 1.0 5.0 0.00 0.00 0.00 96 1017.3
20210924101502 70 134 2.0 4.0 0.00 0.00 0.00 96 1017.4
20210924101003 70 176 2.0 4.0 0.00 0.00 0.00 96 1017.5
20210924100502 70 161 1.0 5.0 0.00 0.00 0.00 96 1017.6
20210924100003 70 146 2.0 5.0 0.00 0.00 0.00 96 1017.6
20210924095502 70 150 2.0 4.0 0.00 0.00 0.00 96 1017.6
20210924095003 70 191 1.0 4.0 0.00 0.00 0.00 96 1017.7
20210924094502 70 177 1.0 6.0 0.00 0.00 0.00 96 1017.6
20210924094003 70 158 2.0 6.0 0.00 0.00 0.00 96 1017.7
20210924093502 70 151 1.0 5.0 0.00 0.00 0.00 96 1017.7
20210924093003 70 214 1.0 5.0 0.00 0.00 0.00 96 1017.6
20210924084002 70 164 2.0 4.0 0.00 0.00 0.00 97 1017.6
20210924083503 70 95 1.0 7.0 0.00 0.00 0.00 96 1017.5
20210924083002 70 140 1.0 7.0 0.00 0.00 0.00 97 1017.4
20210924082503 69 118 1.0 7.0 0.00 0.00 0.00 97 1017.6
20210924082002 69 180 2.0 4.0 0.00 0.00 0.00 97 1017.5
20210924081503 69 168 3.0 6.0 0.00 0.00 0.00 97 1017.4
20210924081002 69 80 3.0 7.0 0.00 0.00 0.00 97 1017.4
20210924080503 69 157 2.0 7.0 0.00 0.00 0.00 97 1017.4
20210924080002 69 70 1.0 5.0 0.00 0.00 0.00 97 1017.5
20210924075503 69 119 2.0 4.0 0.00 0.00 0.00 97 1017.5
20210924075002 69 101 1.0 6.0 0.00 0.00 0.00 97 1017.6
20210924074503 69 77 2.0 6.0 0.00 0.00 0.00 97 1017.5
20210924074003 69 132 1.0 4.0 0.00 0.00 0.00 97 1017.6
20210924073502 69 42 1.0 4.0 0.00 0.00 0.00 97 1017.6
20210924073003 69 72 1.0 5.0 0.00 0.00 0.00 97 1017.6
20210924072502 70 210 1.0 5.0 0.00 0.00 0.00 96 1017.6
20210924072003 70 51 2.0 3.0 0.00 0.00 0.00 96 1017.6
20210924071503 70 76 2.0 4.0 0.00 0.00 0.00 96 1017.8
20210924071003 70 87 1.0 5.0 0.00 0.00 0.00 96 1017.8
20210924070502 70 96 1.0 5.0 0.00 0.00 0.00 95 1017.7
20210924070003 70 118 2.0 5.0 0.00 0.00 0.00 95 1017.8
20210924065502 70 180 2.0 6.0 0.00 0.00 0.00 95 1017.9
20210924065003 70 155 2.0 6.0 0.00 0.00 0.00 95 1017.8
20210924064502 70 128 1.0 5.0 0.00 0.00 0.00 95 1017.9
20210924064003 70 71 2.0 5.0 0.00 0.00 0.00 95 1018.0
20210924063502 69 167 2.0 5.0 0.00 0.00 0.00 95 1018.0
20210924063003 69 87 2.0 4.0 0.00 0.00 0.00 96 1018.0
20210924062502 69 158 2.0 4.0 0.00 0.00 0.00 96 1017.9
20210924062003 69 76 2.0 4.0 0.00 0.00 0.00 96 1017.9
20210924061503 69 169 1.0 3.0 0.00 0.00 0.00 96 1017.9
20210924061003 69 70 1.0 3.0 0.00 0.00 0.00 96 1017.9
20210924060503 69 155 1.0 3.0 0.00 0.00 0.00 95 1017.9
20210924060002 69 103 1.0 4.0 0.00 0.00 0.00 95 1017.9
20210924055503 69 43 2.0 4.0 0.00 0.00 0.00 95 1017.9
20210924055002 69 119 1.0 4.0 0.00 0.00 0.00 95 1018.0
20210924054503 69 167 2.0 4.0 0.00 0.00 0.00 96 1018.0
20210924054002 69 64 2.0 4.0 0.00 0.00 0.00 96 1018.0
20210924053503 69 162 1.0 5.0 0.00 0.00 0.00 96 1018.1
20210924053002 69 93 2.0 5.0 0.00 0.00 0.00 96 1018.0
20210924052503 69 65 2.0 5.0 0.00 0.00 0.00 96 1018.2
20210924052002 69 73 2.0 5.0 0.00 0.00 0.00 96 1018.2
20210924051503 69 159 1.0 4.0 0.00 0.00 0.00 96 1018.2
20210924051003 69 165 1.0 4.0 0.00 0.00 0.00 96 1018.4
20210924050502 69 171 1.0 4.0 0.00 0.00 0.00 96 1018.3
20210924050003 69 173 1.0 6.0 0.00 0.00 0.00 96 1018.4
20210924045503 69 115 2.0 6.0 0.00 0.00 0.00 96 1018.4
20210924045003 69 148 1.0 4.0 0.00 0.00 0.00 96 1018.4
20210924044502 69 142 1.0 6.0 0.00 0.00 0.00 96 1018.4
20210924044003 69 176 1.0 6.0 0.00 0.00 0.00 96 1018.5
20210924043502 69 109 1.0 4.0 0.00 0.00 0.00 96 1018.5
20210924043003 69 76 2.0 6.0 0.00 0.00 0.00 96 1018.6
20210924042503 69 58 2.0 6.0 0.00 0.00 0.00 96 1018.6
20210924042002 69 165 2.0 6.0 0.00 0.00 0.00 96 1018.7
20210924041503 69 118 2.0 6.0 0.00 0.00 0.00 96 1018.8
20210924041002 69 156 1.0 3.0 0.00 0.00 0.00 96 1018.8
20210924040502 69 111 1.0 4.0 0.00 0.00 0.00 96 1018.8
20210924040003 69 92 1.0 6.0 0.00 0.00 0.00 96 1018.9
20210924035502 69 145 1.0 6.0 0.00 0.00 0.00 96 1018.9
20210924035003 69 168 1.0 6.0 0.00 0.00 0.00 96 1018.9
20210924034503 69 143 1.0 5.0 0.00 0.00 0.00 96 1018.9
20210924034003 69 107 1.0 5.0 0.00 0.00 0.00 96 1018.9
20210924033502 68 64 1.0 3.0 0.00 0.00 0.00 96 1018.8
20210924033002 68 136 1.0 4.0 0.00 0.00 0.00 96 1018.9
20210924032502 68 44 1.0 4.0 0.00 0.00 0.00 96 1018.9
20210924032003 68 74 2.0 5.0 0.00 0.00 0.00 96 1018.9
20210924031502 68 60 2.0 5.0 0.00 0.00 0.00 96 1018.9
20210924031003 68 60 1.0 4.0 0.00 0.00 0.00 96 1018.9
20210924030503 69 58 1.0 5.0 0.00 0.00 0.00 95 1018.9
20210924030003 69 61 2.0 5.0 0.00 0.00 0.00 95 1018.9
20210924025503 69 54 3.0 5.0 0.00 0.00 0.00 95 1019.0
20210924025002 69 51 2.0 5.0 0.00 0.00 0.00 95 1019.0
20210924024503 69 81 2.0 4.0 0.00 0.00 0.00 95 1019.1
20210924024002 69 64 2.0 4.0 0.00 0.00 0.00 95 1019.0
20210924023503 69 59 2.0 4.0 0.00 0.00 0.00 95 1019.0
20210924023002 69 79 2.0 4.0 0.00 0.00 0.00 95 1019.0
20210924022503 69 69 1.0 3.0 0.00 0.00 0.00 95 1019.0
20210924022003 69 51 1.0 6.0 0.00 0.00 0.00 96 1019.1
20210924021502 69 74 2.0 6.0 0.00 0.00 0.00 96 1019.1
20210924021003 69 77 3.0 5.0 0.00 0.00 0.00 96 1019.0
20210924020502 69 61 3.0 7.0 0.00 0.00 0.00 96 1019.0
20210924020003 69 87 3.0 7.0 0.00 0.00 0.00 96 1019.1
20210924015502 69 86 2.0 7.0 0.00 0.00 0.00 96 1019.1
20210924015003 69 70 3.0 7.0 0.00 0.00 0.00 96 1019.2
20210924014502 69 81 2.0 6.0 0.00 0.00 0.00 96 1019.2
20210924014003 69 40 1.0 5.0 0.00 0.00 0.00 96 1019.2
20210924013503 69 69 2.0 5.0 0.00 0.00 0.00 96 1019.2